Mountain Home, ID

7:46 PM MDT on May 26, 2018 (GMT -0600)
Mountain Home Air Force Base

Weather History for KMUO - December, 2012

Change the Weather History Date:

Monday, December 3, 2012

  Actual Average Record
Temperature  
Mean Temperature 38 °F 32 °F  
Max Temperature 49 °F 40 °F 60 °F (1918)
Min Temperature 26 °F 23 °F 0 °F (1906)
Degree Days  
Heating Degree Days 27 33  
Month to date heating degree days 60 98  
Cooling Degree Days 0 0  
Month to date cooling degree days 0 0  
Moisture  
Dew Point 30 °F    
Average Humidity 79    
Maximum Humidity 100    
Minimum Humidity 46    
Precipitation  
Precipitation 0.00 in 0.06 in 0.48 in (1950)
Month to date precipitation T 0.18  
Sea Level Pressure  
Sea Level Pressure 30.20 in    
Wind  
Wind Speed 8 mph (East)    
Max Wind Speed 18 mph    
Max Gust Speed -    
Visibility 10 miles    
Events      
T = Trace of Precipitation, MM = Missing Value Source: NWS Daily Summary

Daily Weather History Graph

Daily Weather History Graph

Search for Another Location

Airport or City:

Astronomy

Dec. 03, 2012 Rise Set
Actual Time 7:57 AM MST 5:09 PM MST
Civil Twilight 7:25 AM MST 5:41 PM MST
Nautical Twilight 6:50 AM MST 6:16 PM MST
Astronomical Twilight 6:16 AM MST 6:50 PM MST
Moon 10:04 PM MST (12/3) 11:19 AM MST (12/3)
Length of Visible Light 10h 15m
Length of Day
9h 11m
Waning Gibbous, 77% of the Moon is Illuminated
Dec 3
Waning Gibbous
Dec 6
Last Quarter
Dec 13
New
Dec 19
First Quarter
Dec 28
Full

Hourly Weather History & Observations

Time (MST) Temp. Windchill Dew Point Humidity Pressure Visibility Wind Dir Wind Speed Gust Speed Precip Events Conditions
12:08 AM 28.4 °F - 24.8 °F 86% 30.07 in 10.0 mi SW 2.3 mph - N/A   Scattered Clouds
12:58 AM 30.9 °F 25.2 °F 24.8 °F 78% 30.10 in 10.0 mi NE 5.8 mph - N/A   Clear
1:58 AM 28.2 °F 23.1 °F 25.0 °F 88% 30.12 in 10.0 mi NE 4.6 mph - N/A   Clear
2:58 AM 28.0 °F 21.7 °F 27.7 °F 99% 30.13 in 10.0 mi ESE 5.8 mph - N/A   Clear
3:58 AM 25.9 °F 19.2 °F 25.9 °F 100% 30.14 in 10.0 mi ESE 5.8 mph - N/A   Clear
4:58 AM 31.8 °F - 28.9 °F 89% 30.14 in 10.0 mi ENE 1.2 mph - N/A   Clear
5:58 AM 27.7 °F 19.6 °F 27.7 °F 100% 30.16 in 10.0 mi East 8.1 mph - N/A   Clear
6:58 AM 30.0 °F 19.5 °F 30.0 °F 100% 30.16 in 10.0 mi East 13.8 mph - N/A   Clear
7:58 AM 31.5 °F 24.2 °F 31.5 °F 100% 30.21 in 10.0 mi East 8.1 mph - N/A   Clear
8:58 AM 31.1 °F 22.4 °F 31.1 °F 100% 30.23 in 10.0 mi East 10.4 mph - N/A   Partly Cloudy
9:58 AM 37.2 °F 28.7 °F 32.9 °F 84% 30.23 in 10.0 mi ESE 13.8 mph - N/A   Clear
10:58 AM 41.0 °F 33.9 °F 30.6 °F 66% 30.24 in 10.0 mi East 12.7 mph - N/A   Clear
11:58 AM 45.1 °F 39.5 °F 28.9 °F 53% 30.25 in 10.0 mi East 11.5 mph - N/A   Clear
12:58 PM 46.6 °F - 28.8 °F 50% 30.23 in 10.0 mi ESE 11.5 mph - N/A   Clear
1:58 PM 48.6 °F - 28.9 °F 47% 30.22 in 10.0 mi ESE 5.8 mph - N/A   Clear
2:58 PM 49.1 °F - 28.9 °F 46% 30.21 in 10.0 mi East 6.9 mph - N/A   Clear
3:58 PM 48.7 °F - 28.9 °F 46% 30.23 in 10.0 mi ESE 8.1 mph - N/A   Clear
4:58 PM 44.2 °F 38.8 °F 30.9 °F 60% 30.22 in 10.0 mi ESE 10.4 mph - N/A   Clear
5:58 PM 39.6 °F 33.0 °F 32.2 °F 75% 30.25 in 10.0 mi East 10.4 mph - N/A   Clear
6:58 PM 37.4 °F 29.8 °F 31.3 °F 79% 30.25 in 10.0 mi East 11.5 mph - N/A   Clear
7:58 PM 34.5 °F 26.7 °F 33.4 °F 96% 30.25 in 10.0 mi East 10.4 mph - N/A   Clear
8:58 PM 35.6 °F 27.5 °F 35.2 °F 99% 30.24 in 10.0 mi ESE 11.5 mph - N/A   Clear
9:58 PM 37.6 °F 28.8 °F 33.3 °F 84% 30.23 in 10.0 mi ESE 15.0 mph - N/A   Clear
10:58 PM 39.6 °F 31.0 °F 31.5 °F 73% 30.22 in 10.0 mi East 16.1 mph - N/A   Partly Cloudy
11:58 PM 39.7 °F 30.6 °F 30.4 °F 69% 30.19 in 10.0 mi East 18.4 mph - N/A   Scattered Clouds